Tracking 19794 objects as of 21-Jul-2019
HD Live streaming from Space Station
objects crossing your sky now

COSMOS 1275 DEB

Track COSMOS 1275 DEB now!
10-day predictions


NORAD ID: 12779
Int'l Code: 1981-053DV
Perigee: 660.5 km
Apogee: 670.1 km
Inclination: 82.6 °
Period: 97.9 minutes
Semi major axis: 7036 km
RCS: 0.0961 m2 (small)
Launch date: June 4, 1981
Source: Commonwealth of Independent States (former USSR) (CIS)
Launch site: PLESETSK MISSILE AND SPACE COMPLEX (PKMTR)

Note: This is SATELLITE DEBRIS
aabbcc
Your satellite tracking list
Your tracking list is empty




NASA's NSSDC Master Catalog

Two Line Element Set (TLE):
1 12779U 81053DV  19201.93270330 +.00001278 +00000-0 +20542-3 0  9997
2 12779 082.5595 007.0936 0006863 308.9577 051.1019 14.70914051963680
Source of the keplerian elements: AFSPC